Weather in Bazhenovo

Russia / Omsk Oblast     55°38′08″N   73°05′57″E
temp.,
°C
wind,
m/s
gust,
m/s
humid.,
%
clouds,
%
prec.,
mm/h
press.,
hPa
HPBL,
m
24 may, tue
tue2400:00+16ssw4867100 0.6 1013198
03:00+15sse487192 0.1 1013143
06:00+13s4107641 0.1 1015203
09:00+19ssw58548 0.0 1015433
12:00+23sw4643100 0.0 10161421
15:00+25ssw573598 0.0 10162649
18:00+24s46385 0.0 10161672
21:00+19se47565 0.0 101688
25 may, wed
wed2500:00+17sse46555 0.0 101678
03:00+15sse33576 0.0 101734
06:00+15s33605 0.0 101728
09:00+22sse33455 0.0 1017273
12:00+26se35340 0.0 10171580
15:00+28ese452980 0.0 10162481
18:00+27ese4538100 0.0 10162008
21:00+20e4862100 0.0 1016135
26 may, thu
thu2600:00+18ese486096 0.0 1015124
03:00+17ese476127 0.0 101593
06:00+16ese4969100 0.0 1014173
09:00+22ese6115270 0.0 1013625
12:00+26se811381 0.0 10112051
15:00+27se810330 0.0 10102190
18:00+27se711370 0.0 10081547
21:00+22ese8165312 0.0 1006396
27 may, fri
fri2700:00+18se51475100 2.0 1008368
03:00+16s348698 0.3 100861
06:00+15wsw489544 0.3 1009404
09:00+14w5779100 0.0 1010763
12:00+14w6779100 0.0 1012829
15:00+15wnw5673100 0.1 1013945
18:00+16nw566774 0.1 10131079
21:00+14nw377494 0.1 1014336
28 may, sat
sat2800:00+11wnw348598 0.1 101557
03:00+10nw348383 0.0 101564
06:00+10nw36812 0.0 1016136
09:00+15nw44620 0.0 1016585
12:00+19nw45455 0.0 10161729
15:00+20nw564219 0.0 10151944
18:00+19nw554513 0.0 10161892
21:00+15wnw46686 0.0 101697